When you browse on this site, cookies collect data to enhance your experience and personalize the content and advertising you see.
Visit our Privacy Policy to learn more. By continuing to use the site, you agree to this use of cookies and data.
  • In Latvia
  • List of Countries
  • For 7 days
  • Water Temperature
  • Weather Map
  • Weather Widgets
  • user-avatar
    Login

    Hourly Weather Novodeviche

    Today, 16 September, Monday

    Time Temperature Precipitation Wind Pressure Humidity
    00:00 +9°C° 0 mm 3 mps 749 mmHg 76%
    01:00 +9°C° 0 mm 3 mps 748 mmHg 75%
    02:00 +9°C° 0 mm 3 mps 748 mmHg 73%
    03:00 +9°C° 0 mm 3 mps 748 mmHg 71%
    04:00 +8°C° 0 mm 4 mps 747 mmHg 70%
    05:00 +8°C° 0 mm 4 mps 747 mmHg 69%
    06:00 +8°C° 0 mm 5 mps 747 mmHg 68%
    07:00 +9°C° 0 mm 6 mps 747 mmHg 65%
    08:00 +10°C° 0 mm 6 mps 746 mmHg 61%
    09:00 +11°C° 0 mm 7 mps 746 mmHg 57%
    10:00 +10°C° 0.4 mm 7 mps 745 mmHg 66%
    11:00 +10°C° 0.4 mm 8 mps 745 mmHg 74%
    12:00 +9°C° 0.4 mm 8 mps 744 mmHg 83%
    13:00 +9°C° 0.3 mm 8 mps 743 mmHg 82%
    14:00 +10°C° 0.3 mm 7 mps 743 mmHg 81%
    15:00 +10°C° 0.3 mm 7 mps 742 mmHg 80%
    16:00 +10°C° 0.2 mm 7 mps 742 mmHg 80%
    17:00 +11°C° 0.2 mm 7 mps 741 mmHg 80%
    18:00 +11°C° 0.2 mm 6 mps 741 mmHg 79%
    19:00 +11°C° 0 mm 6 mps 741 mmHg 80%
    20:00 +11°C° 0 mm 6 mps 741 mmHg 80%
    21:00 +11°C° 0 mm 6 mps 741 mmHg 80%
    22:00 +10°C° 0 mm 6 mps 741 mmHg 82%
    23:00 +9°C° 0 mm 5 mps 741 mmHg 84%

    Tomorrow, 17 September, Tuesday

    Time Temperature Precipitation Wind Pressure Humidity
    00:00 +9°C° 0 mm 5 mps 741 mmHg 87%
    01:00 +8°C° 0 mm 5 mps 741 mmHg 88%
    02:00 +8°C° 0 mm 5 mps 741 mmHg 89%
    03:00 +8°C° 0 mm 5 mps 741 mmHg 90%
    04:00 +8°C° 0 mm 5 mps 741 mmHg 90%
    05:00 +7°C° 0 mm 5 mps 741 mmHg 91%
    06:00 +7°C° 0 mm 5 mps 741 mmHg 92%
    07:00 +9°C° 0 mm 5 mps 741 mmHg 85%
    08:00 +10°C° 0 mm 6 mps 741 mmHg 78%
    09:00 +13°C° 0 mm 6 mps 741 mmHg 71%
    10:00 +14°C° 0 mm 6 mps 741 mmHg 64%
    11:00 +15°C° 0 mm 7 mps 741 mmHg 58%
    12:00 +16°C° 0 mm 7 mps 740 mmHg 51%
    13:00 +16°C° 0 mm 7 mps 740 mmHg 51%
    14:00 +16°C° 0 mm 6 mps 740 mmHg 51%
    15:00 +16°C° 0 mm 6 mps 740 mmHg 51%
    16:00 +15°C° 0 mm 5 mps 740 mmHg 55%
    17:00 +14°C° 0 mm 5 mps 740 mmHg 59%
    18:00 +13°C° 0 mm 4 mps 740 mmHg 63%
    19:00 +12°C° 0 mm 4 mps 740 mmHg 65%
    20:00 +11°C° 0 mm 4 mps 740 mmHg 67%
    21:00 +10°C° 0 mm 4 mps 741 mmHg 69%
    22:00 +10°C° 0 mm 4 mps 741 mmHg 70%
    23:00 +8°C° 0 mm 4 mps 741 mmHg 71%

    Day after tomorrow, 18 September, Wednesday

    Time Temperature Precipitation Wind Pressure Humidity
    00:00 +8°C° 0 mm 4 mps 741 mmHg 72%
    01:00 +7°C° 0 mm 4 mps 741 mmHg 73%
    02:00 +7°C° 0 mm 4 mps 741 mmHg 74%
    03:00 +7°C° 0 mm 4 mps 741 mmHg 76%
    04:00 +7°C° 0 mm 4 mps 741 mmHg 76%
    05:00 +7°C° 0 mm 3 mps 741 mmHg 77%
    06:00 +7°C° 0 mm 3 mps 741 mmHg 78%
    07:00 +8°C° 0 mm 4 mps 741 mmHg 72%
    08:00 +10°C° 0 mm 5 mps 741 mmHg 65%
    09:00 +13°C° 0 mm 6 mps 741 mmHg 58%
    10:00 +14°C° 0.1 mm 7 mps 741 mmHg 55%
    11:00 +15°C° 0.1 mm 7 mps 741 mmHg 52%
    12:00 +16°C° 0.1 mm 8 mps 740 mmHg 49%
    13:00 +15°C° 0.4 mm 7 mps 740 mmHg 55%
    14:00 +14°C° 0.4 mm 7 mps 740 mmHg 62%
    15:00 +13°C° 0.4 mm 6 mps 740 mmHg 68%
    16:00 +12°C° 0.1 mm 5 mps 739 mmHg 70%
    17:00 +12°C° 0.1 mm 4 mps 739 mmHg 71%
    18:00 +11°C° 0.1 mm 3 mps 739 mmHg 73%
    19:00 +11°C° 0 mm 3 mps 739 mmHg 73%
    20:00 +11°C° 0 mm 3 mps 738 mmHg 74%
    21:00 +10°C° 0 mm 3 mps 738 mmHg 74%
    22:00 +10°C° 0.2 mm 4 mps 737 mmHg 78%
    23:00 +10°C° 0.2 mm 4 mps 737 mmHg 82%

    19 September, Thursday

    Time Temperature Precipitation Wind Pressure Humidity
    00:00 +8°C° 0.2 mm 4 mps 736 mmHg 85%
    01:00 +8°C° 0.8 mm 5 mps 736 mmHg 87%
    02:00 +8°C° 0.8 mm 5 mps 736 mmHg 89%
    03:00 +7°C° 0.8 mm 5 mps 735 mmHg 92%
    04:00 +7°C° 1.3 mm 5 mps 735 mmHg 91%
    05:00 +7°C° 1.3 mm 5 mps 735 mmHg 90%
    06:00 +5°C° 1.3 mm 6 mps 736 mmHg 89%
    07:00 +7°C° 0.4 mm 6 mps 736 mmHg 87%
    08:00 +8°C° 0.4 mm 6 mps 737 mmHg 86%
    09:00 +8°C° 0.4 mm 6 mps 738 mmHg 84%
    10:00 +9°C° 0.2 mm 7 mps 739 mmHg 79%
    11:00 +10°C° 0.2 mm 7 mps 740 mmHg 73%
    12:00 +11°C° 0.2 mm 7 mps 741 mmHg 68%
    13:00 +11°C° 0.2 mm 8 mps 742 mmHg 68%
    14:00 +11°C° 0.2 mm 8 mps 743 mmHg 67%
    15:00 +11°C° 0.2 mm 8 mps 743 mmHg 67%
    16:00 +10°C° 0 mm 7 mps 744 mmHg 69%
    17:00 +9°C° 0 mm 6 mps 745 mmHg 71%
    18:00 +8°C° 0 mm 5 mps 745 mmHg 73%
    19:00 +7°C° 0 mm 5 mps 746 mmHg 76%
    20:00 +7°C° 0 mm 5 mps 746 mmHg 78%
    21:00 +6°C° 0 mm 4 mps 747 mmHg 81%
    22:00 +5°C° 0 mm 4 mps 747 mmHg 82%
    23:00 +5°C° 0 mm 4 mps 748 mmHg 84%

    20 September, Friday

    Time Temperature Precipitation Wind Pressure Humidity
    00:00 +4°C° 0 mm 3 mps 748 mmHg 85%
    01:00 +4°C° 0 mm 3 mps 748 mmHg 86%
    02:00 +4°C° 0 mm 3 mps 748 mmHg 86%
    03:00 +3°C° 0 mm 3 mps 748 mmHg 86%
    04:00 +3°C° 0 mm 3 mps 748 mmHg 86%
    05:00 +3°C° 0 mm 3 mps 748 mmHg 87%
    06:00 +3°C° 0 mm 3 mps 749 mmHg 87%
    07:00 +5°C° 0 mm 2 mps 749 mmHg 79%
    08:00 +7°C° 0 mm 2 mps 749 mmHg 70%
    09:00 +9°C° 0 mm 2 mps 749 mmHg 62%
    10:00 +10°C° 0 mm 2 mps 749 mmHg 60%
    11:00 +10°C° 0 mm 2 mps 749 mmHg 58%
    12:00 +12°C° 0 mm 1 mps 749 mmHg 56%
    13:00 +12°C° 0.2 mm 1 mps 749 mmHg 59%
    14:00 +12°C° 0.2 mm 1 mps 749 mmHg 63%
    15:00 +12°C° 0.2 mm 1 mps 749 mmHg 66%
    16:00 +11°C° 0.3 mm 1 mps 749 mmHg 70%
    17:00 +10°C° 0.3 mm 1 mps 749 mmHg 75%
    18:00 +10°C° 0.3 mm 1 mps 749 mmHg 79%
    19:00 +9°C° 0.1 mm 1 mps 749 mmHg 81%
    20:00 +8°C° 0.1 mm 1 mps 749 mmHg 83%
    21:00 +8°C° 0.1 mm 1 mps 749 mmHg 84%
    22:00 +8°C° 0.1 mm 1 mps 749 mmHg 85%
    23:00 +7°C° 0.1 mm 1 mps 749 mmHg 86%

    21 September, Saturday

    Time Temperature Precipitation Wind Pressure Humidity
    00:00 +6°C° 0.1 mm 2 mps 749 mmHg 87%
    01:00 +6°C° 0.5 mm 2 mps 749 mmHg 88%
    02:00 +5°C° 0.5 mm 3 mps 749 mmHg 89%
    03:00 +5°C° 0.5 mm 3 mps 749 mmHg 90%
    04:00 +5°C° 0.3 mm 3 mps 749 mmHg 91%
    05:00 +5°C° 0.3 mm 3 mps 749 mmHg 91%
    06:00 +5°C° 0.3 mm 3 mps 749 mmHg 91%
    07:00 +5°C° 0.1 mm 3 mps 750 mmHg 87%
    08:00 +7°C° 0.1 mm 3 mps 750 mmHg 82%
    09:00 +7°C° 0.1 mm 3 mps 750 mmHg 78%
    10:00 +8°C° 0.1 mm 3 mps 750 mmHg 72%
    11:00 +9°C° 0.1 mm 3 mps 750 mmHg 66%
    12:00 +10°C° 0.1 mm 4 mps 751 mmHg 60%
    13:00 +10°C° 0.1 mm 4 mps 751 mmHg 58%
    14:00 +10°C° 0.1 mm 4 mps 750 mmHg 55%
    15:00 +10°C° 0.1 mm 4 mps 750 mmHg 52%
    16:00 +8°C° 0.1 mm 4 mps 751 mmHg 57%
    17:00 +8°C° 0.1 mm 3 mps 751 mmHg 62%
    18:00 +7°C° 0.1 mm 3 mps 751 mmHg 68%
    19:00 +5°C° 0 mm 3 mps 751 mmHg 68%
    20:00 +4°C° 0 mm 3 mps 752 mmHg 69%
    21:00 +4°C° 0 mm 4 mps 752 mmHg 70%
    22:00 +3°C° 0 mm 4 mps 752 mmHg 71%
    23:00 +3°C° 0 mm 3 mps 752 mmHg 72%
    Show more